Back to catalog

FENGYUN 1C DEB

AliveLEO
NORAD 31483·DEBRIS·🇨🇳 China

Launched May 10, 1999 from Taiyuan Satellite Launch Center

Loading…

Next Passes (next 24 hours)

TLE

FreshSource: Space-Track

Epoch: Sep 14, 2026, 02:53 UTC

1 31483U 99025BVX 26257.12075884  .00004111  00000-0  18822-2 0  9991
2 31483 102.5120 323.3076 0117725 253.3510 137.0908 14.18705421986080

Track FENGYUN 1C DEB in real time with AllMySat

Download on the App Store